This is the latest recevied weather packets stored in our database for station/object W0WFX-2. If no packets are shown the sender has not sent any weather packets the latest 10 day(s).
| Time | Temp. | Humidity | Pressure | Rain* | Wind** | Luminosity | Snow |
|---|---|---|---|---|---|---|---|
| 1787806365 | 22.78° C | 80% | 1017.4 hPa | 0 mm | - | 0 W/m² | - |
| 1787806063 | 22.78° C | 78% | 1017.6 hPa | 0 mm | - | 0 W/m² | - |
| 1787805759 | 22.78° C | 78% | 1017.5 hPa | 0 mm | - | 0 W/m² | - |
| 1787805454 | 22.78° C | 78% | 1017.4 hPa | 0 mm | - | 0 W/m² | - |
| 1787805150 | 23.33° C | 78% | 1017.5 hPa | 0 mm | - | 0 W/m² | - |
| 1787804849 | 23.33° C | 77% | 1017.3 hPa | 0 mm | - | 0 W/m² | - |
| 1787804544 | 23.33° C | 74% | 1017.5 hPa | 0 mm | - | 0 W/m² | - |
| 1787804244 | 23.33° C | 74% | 1017.3 hPa | 0 mm | - | 0 W/m² | - |
| 1787803939 | 23.89° C | 73% | 1017.2 hPa | 0 mm | - | 0 W/m² | - |
| 1787803638 | 23.89° C | 73% | 1017.2 hPa | 0 mm | - | 0 W/m² | - |
| 1787803338 | 23.89° C | 72% | 1017.1 hPa | 0 mm | - | 0 W/m² | - |
| 1787803032 | 23.89° C | 71% | 1017.1 hPa | 0 mm | - | 0 W/m² | - |
| 1787802732 | 23.89° C | 71% | 1017.2 hPa | 0 mm | - | 0 W/m² | - |
| 1787802426 | 23.89° C | 72% | 1017 hPa | 0 mm | - | 0 W/m² | - |
| 1787802120 | 23.89° C | 71% | 1017.2 hPa | 0 mm | - | 0 W/m² | - |
| 1787801816 | 24.44° C | 70% | 1016.7 hPa | 0 mm | - | 0 W/m² | - |
| 1787801511 | 24.44° C | 69% | 1017.3 hPa | 0 mm | - | 0 W/m² | - |
| 1787801210 | 24.44° C | 68% | 1016.9 hPa | 0 mm | - | 0 W/m² | - |
| 1787800909 | 24.44° C | 68% | 1016.8 hPa | 0 mm | - | 0 W/m² | - |
| 1787800604 | 24.44° C | 70% | 1016.9 hPa | 0 mm | - | 0 W/m² | - |
| 1787800304 | 25° C | 70% | 1016.7 hPa | 0 mm | - | 0 W/m² | - |
| 1787800000 | 25° C | 71% | 1016.5 hPa | 0 mm | - | 0 W/m² | - |
| 1787799698 | 25° C | 69% | 1016.8 hPa | 0 mm | - | 0 W/m² | - |
| 1787799395 | 25° C | 68% | 1016.8 hPa | 0 mm | - | 0 W/m² | - |
| 1787799095 | 25° C | 67% | 1016.7 hPa | 0 mm | - | 0 W/m² | - |
* Rain latest hour (hover to see other rain measurements)
** Current wind speed in m/s (hover to see current wind gust speed)